Location: Great Falls Observatory Park
(38.9954°N, 77.3130°W)
Time: 03:12:45
(UTC-04:00)

ISS - Visible Passes

Search period start: 23 October 2019 00:00
Search period end: 02 November 2019 00:00
Orbit: 411 x 421 km, 51.6° (Epoch: 23 October)

Date Brightness Start Highest point End Pass type
(mag) Time Alt. Az. Time Alt. Az. Time Alt. Az.
23 Oct -0.9 06:12:14 10° S 06:14:35 18° SE 06:16:56 10° E visible
24 Oct -3.8 06:59:07 10° SW 07:02:29 82° NW 07:05:52 10° NE visible
25 Oct -3.1 06:11:26 16° SSW 06:13:57 53° SE 06:17:15 10° ENE visible
26 Oct -1.9 05:25:40 28° SE 05:25:40 28° SE 05:28:26 10° ENE visible
26 Oct -2.8 06:59:06 10° W 07:02:10 31° NNW 07:05:14 10° NE visible
27 Oct -3.5 06:12:37 38° W 06:13:30 51° NW 06:16:48 10° NE visible
28 Oct -1.9 05:26:28 29° NE 05:26:28 29° NE 05:28:16 10° NE visible
28 Oct -1.9 06:59:42 10° WNW 07:02:00 17° NNW 07:04:19 10° NNE visible
29 Oct -2.3 06:13:05 23° NNW 06:13:13 23° NNW 06:15:58 10° NNE visible
30 Oct -1.2 05:26:41 16° NNE 05:26:41 16° NNE 05:27:34 10° NE visible
30 Oct -1.4 07:00:45 10° NNW 07:01:59 12° NNW 07:03:13 10° N visible
31 Oct -1.5 06:13:05 14° NNW 06:13:05 14° NNW 06:14:56 10° NNE visible
01 Nov -0.7 05:26:31 10° NNE 05:26:31 10° NNE 05:26:35 10° NNE visible
